Regional Weather Roundup
Issued by NWS Cleveland, OH

Home | Current Version | Previous Version | Text Only | Print | Product List | Glossary Off
Versions: 1 2 3 4 5 6 7 8 9 10 11 12 13 14 15 16 17 18 19 20 21 22 23 24 25 26 27 28 29 30 31 32 33 34 35 36 37 38 39 40 41 42 43 44 45 46 47 48 49 50

000
ASUS41 KCLE 201010
RWRCLE
OHIO REGIONAL WEATHER ROUNDUP
NATIONAL WEATHER SERVICE WILMINGTON, OH
500 AM EST SAT JAN 20 2018

NOTE: "FAIR" INDICATES FEW OR NO CLOUDS BELOW 12,000 FEET WITH NO
SIGNIFICANT WEATHER AND/OR OBSTRUCTIONS TO VISIBILITY.

OHZ001>008-015>018-024>027-034-035-043-044-201100-
   NORTHWEST OHIO

CITY           SKY/WX    TMP DP  RH WIND       PRES   REMARKS
DEFIANCE       FAIR      32  22  66 SW13      29.89R WCI  22
FINDLAY        FAIR      34  22  61 SW15      29.90S WCI  24
TOLEDO EXPRESS FAIR      34  25  69 SW16G29   29.86R WCI  24
TOLEDO EXEC    FAIR      32  24  72 SW13      29.88R WCI  22
LIMA           FAIR      33  24  69 SW16G25   29.92S WCI  23
$$

OHZ009>014-019>023-028>033-038-089-201100-
   NORTHEAST OHIO

CITY           SKY/WX    TMP DP  RH WIND       PRES   REMARKS
CLE-HOPKINS    FAIR      38  24  57 SW21G26   29.91S
CLE-LAKEFRONT  FAIR      39  24  55 SW21G29   29.88R
CUY CO. ARPT   NOT AVBL
LORAIN-ELYRIA  FAIR      34  20  56 SW20      29.89S WCI  23
ASHTABULA      FAIR      34  23  64 SW13      29.87S WCI  25
AKRON-CANTON   FAIR      32  21  64 SW16      29.93S WCI  21
WOOSTER        FAIR      32  21  64 SW12      29.93F WCI  23
MANSFIELD      FAIR      33  22  63 S21G29    29.92S WCI  21
YOUNGSTOWN     FAIR      34  22  61 SW13G23   29.90S WCI  25
$$

OHZ042-051>053-060>062-070>072-077>081-201100-
  SOUTHWEST OHIO

CITY           SKY/WX    TMP DP  RH WIND       PRES   REMARKS
CINC-COVINGTON FAIR      34  25  69 SW9       30.04R WCI  27
CINC-LUNKEN    FAIR      35  24  64 SW6       30.08R
HAMILTON       FAIR      34  24  67 SW5       30.05S WCI  30
DAYTON         MOCLDY    31  23  72 S12       29.99F WCI  22
WRIGHT-PAT AFB FAIR      32  18  54 S12       30.00S WCI  23
DAYTON GENERAL FAIR      35  23  61 SW12      30.01R WCI  27
WILMINGTON     FAIR      33  24  69 SW17      30.02R WCI  22
$$

OHZ036-037-039>041-045>050-054>059-063>069-073>076-082>088-201100-
  CENTRAL AND SOUTHEAST OHIO

CITY           SKY/WX    TMP DP  RH WIND       PRES   REMARKS
COLUMBUS       FAIR      30  22  72 S5        30.02R WCI  25
OSU AIRPORT    FAIR      30  23  75 S8        30.00S WCI  22
BOLTON FIELD   FAIR      29  22  73 S6        30.02S WCI  23
RICKENBACK AFB FAIR      30  22  74 SW12      30.03R WCI  20
NEWARK         FAIR      37  23  56 SW14      30.01R
MARION         FAIR      31  21  66 SW12      29.96R WCI  22
LANCASTER      FAIR      38  24  57 SW10      30.04R
ZANESVILLE     FAIR      32  19  58 S8        30.03R WCI  25
NEW PHILLY     FAIR      35  22  58 S9G16     30.00R WCI  28
$$




USA.gov is the U.S. government's official web portal to all federal, state and local government web resources and services.